Orbital Elements
Epoch 2018 Mar. 23.0 TT = JDT 2458200.5
T 2018 Mar. 22.15494 TT Rudenko
q 1.7134945 (2000.0) P Q
n 0.16423042 Peri. 184.47815 -0.71791386 -0.68686853
a 3.3024302 Node 311.45964 +0.64328769 -0.59244808
e 0.4811414 Incl. 8.68676 +0.26604630 -0.42097137
P 6.00
>From 98 observations 2018 Mar. 29-2024 May 26, mean residual 0".6.
|